Iowa Falls, IA

4:14 PM CST on December 08, 2019 (GMT -0600)
Iowa Falls Municipal

Weather History for KIFA - October, 2019

Change the Weather History Date:

Tuesday, October 22, 2019

  Actual Average Record
Temperature  
Mean Temperature 44 °F -  
Max Temperature 52 °F 61 °F 81 °F (1975)
Min Temperature 37 °F 38 °F 15 °F (1976)
Degree Days  
Heating Degree Days 20    
Moisture  
Dew Point 32 °F    
Average Humidity 64    
Maximum Humidity 82    
Minimum Humidity 35    
Precipitation  
Precipitation 0.01 in - - ()
Sea Level Pressure  
Sea Level Pressure 29.67 in    
Wind  
Wind Speed 22 mph ()    
Max Wind Speed 34 mph    
Max Gust Speed 44 mph    
Visibility 9.7 miles    
Events Rain    
Averages and records for this station are not official NWS values.
T = Trace of Precipitation, MM = Missing Value Source: Averaged Metar Reports

Daily Weather History Graph

Daily Weather History Graph

Search for Another Location

Airport or City:

Astronomy

Oct. 22, 2019 Rise Set
Actual Time 7:34 AM CDT 6:20 PM CDT
Civil Twilight 7:05 AM CDT 6:48 PM CDT
Nautical Twilight 6:32 AM CDT 7:21 PM CDT
Astronomical Twilight 6:00 AM CDT 7:54 PM CDT
Moon 12:34 AM CDT (10/22) 3:39 PM CDT (10/22)
Length of Visible Light 11h 43m
Length of Day
10h 46m
Last Quarter, 37% of the Moon is Illuminated
Oct 22
Last Quarter
Oct 27
New
Nov 4
First Quarter
Nov 12
Full
Nov 19
Last Quarter

Hourly Weather History & Observations

Time (CDT) Temp. Windchill Dew Point Humidity Pressure Visibility Wind Dir Wind Speed Gust Speed Precip Events Conditions
12:15 AM 45.1 °F 36.4 °F 39.7 °F 81% 29.39 in 10.0 mi West 24.2 mph 35.7 mph 0.01 in Rain Light Rain
12:35 AM 45.1 °F 36.2 °F 39.9 °F 82% 29.39 in 5.0 mi West 25.3 mph 35.7 mph 0.01 in Rain Rain
12:55 AM 45.0 °F 35.4 °F 39.7 °F 82% 29.40 in 7.0 mi West 28.8 mph 38.0 mph 0.01 in   Drizzle
1:15 AM 45.0 °F 35.8 °F 39.6 °F 81% 29.41 in 7.0 mi West 26.5 mph 39.1 mph N/A   Drizzle
1:35 AM 44.8 °F 35.3 °F 39.2 °F 81% 29.42 in 7.0 mi West 27.6 mph 39.1 mph N/A   Drizzle
1:55 AM 45.0 °F 35.6 °F 39.2 °F 80% 29.43 in 10.0 mi West 27.6 mph 35.7 mph N/A   Drizzle
2:35 AM 44.2 °F 33.6 °F 38.5 °F 80% 29.45 in 10.0 mi West 34.5 mph 42.6 mph N/A   Light Drizzle
2:55 AM 44.1 °F 33.5 °F 38.3 °F 80% 29.47 in 10.0 mi West 33.4 mph 43.7 mph N/A   Drizzle
3:15 AM 43.9 °F 33.8 °F 38.3 °F 81% 29.47 in 10.0 mi West 29.9 mph 36.8 mph N/A   Drizzle
3:35 AM 43.7 °F 34.3 °F 37.9 °F 80% 29.48 in 10.0 mi West 25.3 mph 34.5 mph N/A   Light Drizzle
3:55 AM 43.7 °F 33.7 °F 37.8 °F 80% 29.49 in 10.0 mi West 28.8 mph 40.3 mph N/A Rain Light Rain
4:15 AM 43.7 °F 33.9 °F 37.9 °F 80% 29.50 in 10.0 mi West 27.6 mph 36.8 mph N/A   Overcast
4:35 AM 43.3 °F 33.8 °F 37.8 °F 81% 29.52 in 7.0 mi West 25.3 mph 35.7 mph N/A   Drizzle
4:55 AM 43.7 °F 33.9 °F 37.8 °F 80% 29.53 in 10.0 mi West 27.6 mph 39.1 mph N/A   Drizzle
5:15 AM 43.3 °F 34.0 °F 37.4 °F 80% 29.54 in 10.0 mi West 24.2 mph 34.5 mph N/A   Drizzle
5:35 AM 43.2 °F 33.6 °F 37.0 °F 79% 29.55 in 10.0 mi West 25.3 mph 35.7 mph N/A   Light Drizzle
5:55 AM 43.0 °F 33.1 °F 36.5 °F 78% 29.56 in 10.0 mi West 26.5 mph 35.7 mph N/A   Overcast
6:15 AM 43.0 °F 33.8 °F 36.5 °F 78% 29.57 in 10.0 mi West 23.0 mph 34.5 mph N/A   Overcast
6:35 AM 42.8 °F 33.3 °F 36.0 °F 77% 29.59 in 10.0 mi West 24.2 mph 32.2 mph N/A   Overcast
6:55 AM 42.8 °F 33.3 °F 35.6 °F 76% 29.60 in 10.0 mi West 24.2 mph 38.0 mph N/A   Overcast
7:15 AM 42.3 °F 32.8 °F 35.1 °F 76% 29.60 in 10.0 mi West 23.0 mph 36.8 mph N/A   Overcast
7:35 AM 42.1 °F 32.8 °F 34.9 °F 76% 29.61 in 10.0 mi West 21.9 mph 31.1 mph N/A   Overcast
7:55 AM 41.9 °F 31.9 °F 34.7 °F 76% 29.62 in 10.0 mi West 25.3 mph 32.2 mph N/A   Overcast
8:15 AM 41.9 °F 32.1 °F 34.7 °F 76% 29.63 in 10.0 mi West 24.2 mph 32.2 mph N/A   Overcast
8:35 AM 42.1 °F 32.8 °F 34.7 °F 75% 29.65 in 10.0 mi West 21.9 mph 31.1 mph N/A   Overcast
8:55 AM 41.9 °F 32.6 °F 34.2 °F 74% 29.65 in 10.0 mi West 21.9 mph 29.9 mph N/A   Overcast
9:15 AM 41.9 °F 32.1 °F 34.0 °F 73% 29.67 in 10.0 mi West 24.2 mph 34.5 mph N/A   Overcast
9:35 AM 41.9 °F 32.8 °F 34.0 °F 73% 29.67 in 10.0 mi West 20.7 mph 32.2 mph N/A   Overcast
9:55 AM 42.3 °F 33.1 °F 34.2 °F 73% 29.68 in 10.0 mi West 21.9 mph 28.8 mph N/A   Overcast
10:15 AM 42.4 °F 33.5 °F 34.2 °F 72% 29.68 in 10.0 mi West 20.7 mph 31.1 mph N/A   Overcast
10:55 AM 42.4 °F 32.4 °F 33.4 °F 70% 29.70 in 10.0 mi West 26.5 mph 34.5 mph N/A   Overcast
11:15 AM 42.8 °F 32.7 °F 33.1 °F 69% 29.71 in 10.0 mi West 27.6 mph 34.5 mph N/A   Overcast
11:55 AM 45.1 °F 35.8 °F 33.4 °F 64% 29.72 in 10.0 mi West 27.6 mph 32.2 mph N/A   Overcast
12:35 PM 45.9 °F 37.2 °F 32.7 °F 60% 29.72 in 10.0 mi West 25.3 mph 34.5 mph N/A   Overcast
12:55 PM 47.5 °F - 32.4 °F 56% 29.72 in 10.0 mi West 26.5 mph 36.8 mph N/A   Mostly Cloudy
1:15 PM 48.2 °F - 31.8 °F 53% 29.72 in 10.0 mi West 28.8 mph 34.5 mph N/A   Mostly Cloudy
1:35 PM 50.2 °F - 30.9 °F 48% 29.72 in 10.0 mi West 26.5 mph 34.5 mph N/A   Scattered Clouds
1:55 PM 50.4 °F - 28.6 °F 43% 29.72 in 10.0 mi West 25.3 mph 36.8 mph N/A   Scattered Clouds
2:15 PM 50.7 °F - 28.2 °F 42% 29.73 in 10.0 mi West 26.5 mph 35.7 mph N/A   Scattered Clouds
2:35 PM 50.9 °F - 26.2 °F 38% 29.73 in 10.0 mi West 27.6 mph 36.8 mph N/A   Scattered Clouds
2:55 PM 51.8 °F - 26.1 °F 37% 29.73 in 10.0 mi West 27.6 mph 34.5 mph N/A   Scattered Clouds
3:15 PM 51.8 °F - 25.2 °F 36% 29.74 in 10.0 mi West 33.4 mph 39.1 mph N/A   Clear
3:35 PM 52.2 °F - 26.1 °F 36% 29.74 in 10.0 mi West 21.9 mph 35.7 mph N/A   Clear
3:55 PM 51.8 °F - 24.8 °F 35% 29.75 in 10.0 mi West 24.2 mph 36.8 mph N/A   Scattered Clouds
4:15 PM 51.4 °F - 26.1 °F 37% 29.76 in 10.0 mi West 27.6 mph 35.7 mph N/A   Scattered Clouds
4:35 PM 50.9 °F - 27.5 °F 40% 29.77 in 10.0 mi West 21.9 mph 35.7 mph N/A   Scattered Clouds
4:55 PM 50.9 °F - 27.0 °F 40% 29.78 in 10.0 mi West 25.3 mph 32.2 mph N/A   Scattered Clouds
5:15 PM 50.5 °F - 27.0 °F 40% 29.78 in 10.0 mi West 19.6 mph 28.8 mph N/A   Scattered Clouds
5:35 PM 50.0 °F - 26.8 °F 41% 29.78 in 10.0 mi West 20.7 mph 26.5 mph N/A   Clear
5:55 PM 49.3 °F - 27.3 °F 43% 29.79 in 10.0 mi West 16.1 mph 28.8 mph N/A   Clear
6:15 PM 48.6 °F - 25.7 °F 41% 29.79 in 10.0 mi West 23.0 mph 33.4 mph N/A   Clear
6:35 PM 46.8 °F - 27.1 °F 46% 29.80 in 10.0 mi West 15.0 mph 20.7 mph N/A   Clear
6:55 PM 46.4 °F 40.7 °F 27.1 °F 47% 29.80 in 10.0 mi West 12.7 mph - N/A   Clear
7:15 PM 45.7 °F 39.8 °F 27.0 °F 48% 29.81 in 10.0 mi West 12.7 mph - N/A   Clear
7:35 PM 44.8 °F 39.4 °F 27.3 °F 50% 29.82 in 10.0 mi West 10.4 mph - N/A   Clear
7:55 PM 44.2 °F 38.4 °F 27.3 °F 51% 29.82 in 10.0 mi West 11.5 mph - N/A   Clear
8:15 PM 43.7 °F 38.6 °F 27.7 °F 53% 29.82 in 10.0 mi WSW 9.2 mph - N/A   Clear
8:35 PM 42.4 °F 37.0 °F 28.4 °F 58% 29.82 in 10.0 mi WSW 9.2 mph - N/A   Clear
8:55 PM 41.4 °F 36.8 °F 28.8 °F 61% 29.82 in 10.0 mi WSW 6.9 mph - N/A   Clear
9:15 PM 40.5 °F 35.8 °F 29.1 °F 64% 29.83 in 10.0 mi WSW 6.9 mph - N/A   Clear
9:35 PM 40.1 °F 35.3 °F 29.3 °F 65% 29.83 in 10.0 mi WSW 6.9 mph - N/A   Mostly Cloudy
10:35 PM 38.7 °F 33.6 °F 29.3 °F 69% 29.84 in 10.0 mi WSW 6.9 mph - N/A   Clear
10:55 PM 38.3 °F 33.2 °F 29.8 °F 72% 29.84 in 10.0 mi WSW 6.9 mph - N/A   Clear
11:35 PM 37.9 °F 32.7 °F 29.8 °F 73% 29.83 in 10.0 mi WSW 6.9 mph - N/A   Clear
11:55 PM 38.3 °F 32.5 °F 29.8 °F 72% 29.83 in 10.0 mi SW 8.1 mph - N/A   Clear